Oelwein, IA

3:27 PM CST on December 08, 2019 (GMT -0600)
Oelwein Municipal

Weather History for KOLZ - October, 2019

Change the Weather History Date:

Thursday, October 10, 2019

  Actual Average Record
Temperature  
Mean Temperature 58 °F -  
Max Temperature 64 °F 61 °F 85 °F (1962)
Min Temperature 53 °F 37 °F 21 °F (1964)
Degree Days  
Heating Degree Days 6    
Growing Degree Days 8 (Base 50)    
Moisture  
Dew Point 58 °F    
Average Humidity 99    
Maximum Humidity 100    
Minimum Humidity 88    
Precipitation  
Precipitation 0.43 in - - ()
Sea Level Pressure  
Sea Level Pressure 29.88 in    
Wind  
Wind Speed 9 mph (SE)    
Max Wind Speed 17 mph    
Max Gust Speed 30 mph    
Visibility 8 miles    
Events      
Averages and records for this station are not official NWS values.
T = Trace of Precipitation, MM = Missing Value Source: NWS Daily Summary

Daily Weather History Graph

Daily Weather History Graph

Search for Another Location

Airport or City:

Astronomy

Oct. 10, 2019 Rise Set
Actual Time 7:15 AM CDT 6:34 PM CDT
Civil Twilight 6:46 AM CDT 7:02 PM CDT
Nautical Twilight 6:14 AM CDT 7:34 PM CDT
Astronomical Twilight 5:41 AM CDT 8:07 PM CDT
Moon 5:41 PM CDT (10/10) 3:52 AM CDT (10/10)
Length of Visible Light 12h 15m
Length of Day
11h 19m
Waxing Gibbous, 91% of the Moon is Illuminated
Oct 10
Waxing Gibbous
Oct 13
Full
Oct 21
Last Quarter
Oct 27
New
Nov 4
First Quarter

Hourly Weather History & Observations

Time (CDT) Temp. Dew Point Humidity Pressure Visibility Wind Dir Wind Speed Gust Speed Precip Events Conditions
12:15 AM 53.6 °F 53.6 °F 100% 30.03 in 9.0 mi NNW 5.8 mph - N/A   Overcast
12:35 AM 53.6 °F 53.6 °F 100% 30.04 in 10.0 mi NW 4.6 mph - N/A   Overcast
12:55 AM 53.6 °F 53.6 °F 100% 30.04 in 10.0 mi NE 3.5 mph - 0.02 in   Overcast
1:15 AM 53.6 °F 53.6 °F 100% 30.02 in 5.0 mi ENE 6.9 mph - N/A   Overcast
1:35 AM 53.6 °F 53.6 °F 100% 30.03 in 5.0 mi North 3.5 mph - N/A   Overcast
1:55 AM 53.6 °F 53.6 °F 100% 30.04 in 7.0 mi NNW 5.8 mph - 0.10 in   Overcast
2:15 AM 53.6 °F 53.6 °F 100% 30.02 in 10.0 mi NE 6.9 mph - N/A   Overcast
2:35 AM 53.6 °F 53.6 °F 100% 30.01 in 6.0 mi NE 6.9 mph - N/A   Overcast
2:55 AM 53.6 °F 53.6 °F 100% 29.99 in 6.0 mi ENE 9.2 mph - 0.05 in   Overcast
3:15 AM 55.4 °F 55.4 °F 100% 29.98 in 10.0 mi East 8.1 mph - N/A   Overcast
3:35 AM 55.4 °F 55.4 °F 100% 29.98 in 10.0 mi ESE 6.9 mph - N/A   Overcast
3:55 AM 55.4 °F 55.4 °F 100% 29.98 in 10.0 mi ESE 9.2 mph - N/A   Overcast
4:15 AM 55.4 °F 55.4 °F 100% 29.96 in 10.0 mi SE 11.5 mph - N/A   Overcast
4:35 AM 55.4 °F 55.4 °F 100% 29.97 in 10.0 mi SSE 5.8 mph 13.8 mph N/A   Overcast
4:55 AM 55.4 °F 55.4 °F 100% 29.95 in 10.0 mi ESE 9.2 mph - N/A   Overcast
5:15 AM 55.4 °F 55.4 °F 100% 29.96 in 10.0 mi SE 8.1 mph - N/A   Overcast
5:35 AM 55.4 °F 55.4 °F 100% 29.94 in 10.0 mi ESE 9.2 mph - N/A   Overcast
5:55 AM 55.4 °F 55.4 °F 100% 29.92 in 10.0 mi ESE 9.2 mph - N/A   Overcast
6:15 AM 55.4 °F 55.4 °F 100% 29.91 in 10.0 mi East 6.9 mph - N/A   Mostly Cloudy
6:35 AM 53.6 °F 53.6 °F 100% 29.91 in 10.0 mi ENE 6.9 mph - N/A   Mostly Cloudy
6:55 AM 53.6 °F 53.6 °F 100% 29.91 in 10.0 mi East 8.1 mph - N/A   Partly Cloudy
7:15 AM - - N/A% 29.91 in 10.0 mi East 9.2 mph - N/A   Mostly Cloudy
7:35 AM 55.4 °F 55.4 °F 100% 29.92 in 10.0 mi ESE 8.1 mph - N/A   Mostly Cloudy
7:55 AM 55.4 °F 55.4 °F 100% 29.93 in 10.0 mi ESE 9.2 mph - N/A   Mostly Cloudy
8:15 AM 55.4 °F 55.4 °F 100% 29.95 in 10.0 mi SE 11.5 mph - N/A   Mostly Cloudy
8:35 AM 55.4 °F 55.4 °F 100% 29.96 in 10.0 mi SSE 12.7 mph - N/A   Overcast
8:55 AM 57.2 °F 55.4 °F 94% 29.96 in 10.0 mi SSE 11.5 mph 18.4 mph N/A   Mostly Cloudy
9:15 AM 55.4 °F 55.4 °F 100% 29.96 in 10.0 mi SSE 9.2 mph - N/A   Scattered Clouds
9:35 AM 55.4 °F 55.4 °F 100% 29.95 in 10.0 mi SE 8.1 mph - N/A   Clear
9:55 AM 55.4 °F 55.4 °F 100% 29.95 in 6.0 mi SSE 8.1 mph - 0.01 in   Clear
10:15 AM 55.4 °F 55.4 °F 100% 29.95 in 8.0 mi SE 10.4 mph - N/A   Clear
10:35 AM 57.2 °F 57.2 °F 100% 29.95 in 9.0 mi SE 8.1 mph - N/A   Clear
10:55 AM 57.2 °F 57.2 °F 100% 29.94 in 10.0 mi SE 10.4 mph - 0.01 in   Clear
11:15 AM 59.0 °F 59.0 °F 100% 29.92 in 10.0 mi SE 8.1 mph 13.8 mph N/A   Scattered Clouds
11:35 AM 59.0 °F 59.0 °F 100% 29.91 in 10.0 mi SE 8.1 mph 15.0 mph N/A   Scattered Clouds
11:55 AM 59.0 °F 59.0 °F 100% 29.90 in 9.0 mi SE 11.5 mph - N/A   Partly Cloudy
12:15 PM 59.0 °F 59.0 °F 100% 29.90 in 7.0 mi SE 10.4 mph - N/A   Partly Cloudy
12:35 PM 59.0 °F 59.0 °F 100% 29.90 in 7.0 mi SE 13.8 mph - N/A   Clear
12:55 PM - - N/A% 29.89 in 8.0 mi SE 11.5 mph - 0.02 in   Mostly Cloudy
1:15 PM 60.8 °F 60.8 °F 100% 29.87 in 10.0 mi SE 17.3 mph - N/A   Overcast
1:35 PM 62.6 °F 62.6 °F 100% 29.86 in 10.0 mi SE 17.3 mph - N/A   Overcast
1:55 PM 64.4 °F 62.6 °F 94% 29.85 in 10.0 mi SSE 16.1 mph 24.2 mph N/A   Overcast
2:15 PM 62.6 °F 60.8 °F 94% 29.85 in 10.0 mi SSE 11.5 mph 20.7 mph N/A   Overcast
2:35 PM 62.6 °F 60.8 °F 94% 29.85 in 10.0 mi SE 11.5 mph 18.4 mph N/A   Overcast
2:55 PM 62.6 °F 60.8 °F 94% 29.84 in 10.0 mi SE 12.7 mph 18.4 mph N/A   Overcast
3:15 PM 64.4 °F 60.8 °F 88% 29.83 in 10.0 mi SE 17.3 mph - N/A   Mostly Cloudy
3:35 PM 64.4 °F 62.6 °F 94% 29.82 in 10.0 mi SE 13.8 mph 20.7 mph N/A   Overcast
3:55 PM 64.4 °F 62.6 °F 94% 29.80 in 10.0 mi SE 13.8 mph 20.7 mph N/A   Overcast
4:35 PM 64.4 °F 62.6 °F 94% 29.80 in 10.0 mi SE 13.8 mph 19.6 mph N/A   Overcast
4:55 PM 64.4 °F 62.6 °F 94% 29.80 in 10.0 mi SE 12.7 mph 20.7 mph N/A   Overcast
5:15 PM 64.4 °F 62.6 °F 94% 29.79 in 10.0 mi SE 17.3 mph - N/A   Overcast
5:35 PM 62.6 °F 62.6 °F 100% 29.79 in 4.0 mi SE 16.1 mph 29.9 mph N/A   Overcast
5:55 PM 62.6 °F 62.6 °F 100% 29.79 in 4.0 mi SE 16.1 mph 25.3 mph N/A   Overcast
6:15 PM 62.6 °F 62.6 °F 100% 29.79 in 7.0 mi SE 13.8 mph - N/A   Overcast
6:35 PM 60.8 °F 60.8 °F 100% 29.79 in 1.8 mi SE 15.0 mph 23.0 mph N/A   Overcast
6:55 PM 60.8 °F 60.8 °F 100% 29.78 in 2.0 mi SE 13.8 mph - N/A   Overcast
7:15 PM 60.8 °F 60.8 °F 100% 29.78 in 2.5 mi SE 13.8 mph 21.9 mph N/A   Overcast
7:35 PM 60.8 °F 60.8 °F 100% 29.78 in 4.0 mi SE 17.3 mph - N/A   Overcast
7:55 PM 60.8 °F 60.8 °F 100% 29.78 in 7.0 mi SSE 13.8 mph - 0.01 in   Overcast
8:15 PM 60.8 °F 60.8 °F 100% 29.77 in 3.0 mi SSE 13.8 mph 21.9 mph N/A   Overcast
8:35 PM 62.6 °F 62.6 °F 100% 29.77 in 5.0 mi SSE 15.0 mph 21.9 mph N/A   Overcast
8:55 PM 62.6 °F 62.6 °F 100% 29.78 in 3.0 mi SSE 15.0 mph - N/A   Overcast
9:15 PM 62.6 °F 62.6 °F 100% 29.78 in 1.5 mi SSE 11.5 mph 18.4 mph N/A   Overcast
9:35 PM 62.6 °F 62.6 °F 100% 29.77 in 2.5 mi SSE 15.0 mph - N/A   Overcast
10:15 PM 62.6 °F 62.6 °F 100% 29.77 in 2.5 mi SSE 12.7 mph - N/A   Overcast
10:35 PM 62.6 °F 62.6 °F 100% 29.76 in 6.0 mi SSE 13.8 mph - N/A   Overcast
10:55 PM 62.6 °F 62.6 °F 100% 29.75 in 5.0 mi SSE 15.0 mph 23.0 mph N/A   Overcast
11:15 PM - - N/A% 29.74 in 6.0 mi SSE 16.1 mph 21.9 mph N/A   Overcast
11:35 PM 64.4 °F 64.4 °F 100% 29.74 in 1.2 mi SSE 15.0 mph 27.6 mph N/A   Overcast
11:55 PM 64.4 °F 64.4 °F 100% 29.74 in 6.0 mi SSE 13.8 mph 19.6 mph 0.21 in   Overcast